Tracking 29969 objects as of 6-Dec-2024
HD Live streaming from Space Station
objects crossing your sky now

IRIDIUM 33 DEB

Track IRIDIUM 33 DEB now!
10-day predictions


NORAD ID: 36490
Int'l Code: 1997-051WG
Perigee: 682.7 km
Apogee: 684.9 km
Inclination: 86.4 °
Period: 98.3 minutes
Semi major axis: 7054 km
RCS: 0.0086 m2 (small)
Launch date: September 14, 1997
Source: United States (US)
Launch site: TYURATAM MISSILE AND SPACE COMPLEX (TTMTR)

Note: This is SATELLITE DEBRIS
Your satellite tracking list
Your tracking list is empty




NASA's NSSDC Master Catalog

Two Line Element Set (TLE):
1 36490U 97051WG  24341.29293164  .00015849  00000-0  29425-2 0  9995
2 36490  86.3726 176.4994 0001534 288.4475  71.6571 14.65124244810220
Source of the keplerian elements: AFSPC